Weather History for Chillicothe, MO

Change the Weather History Date:

Thursday, November 22, 2012

  Actual Average (KIRK) Record (KIRK)
Temperature  
Mean Temperature 56 °F 37 °F  
Max Temperature 68 °F 47 °F 71 °F (2010)
Min Temperature 42 °F 28 °F -1 °F (1937)
Degree Days  
Heating Degree Days 8 28  
Month to date heating degree days 497  
Since 1 July heating degree days 986  
Cooling Degree Days 0 0  
Month to date cooling degree days 0  
Year to date cooling degree days 939  
Growing Degree Days 6 (Base 50)    
Moisture  
Dew Point 41 °F    
Average Humidity 55    
Maximum Humidity 73    
Minimum Humidity 46    
Precipitation  
Precipitation 0.00 in 0.06 in 1.40 in (1963)
Month to date precipitation 2.09  
Year to date precipitation 36.93  
Sea Level Pressure  
Sea Level Pressure 29.96 in    
Wind  
Wind Speed 9 mph (SW)    
Max Wind Speed 13 mph    
Max Gust Speed 25 mph    
T = Trace of Precipitation, MM = Missing Value Source: NWS Daily Summary

Daily Weather History Graph

Daily Weather History Graph

Search for Another Location

Airport:

Trip Planner

Search our weather history database for the weather conditions in past years. The results will help you decide how hot, cold, wet, or windy it might be!

Date:

Astronomy

Nov. 22, 2012 Rise Set
Actual Time 7:07 AM CST 4:53 PM CST
Civil Twilight 6:38 AM CST 5:22 PM CST
Nautical Twilight 6:05 AM CST 5:55 PM CST
Astronomical Twilight 5:32 AM CST 6:28 PM CST
Moon 1:38 PM CST (11/22) 1:28 AM CST (11/22)
Length of Visible Light 10h 44m
Length of Day
9h 45m
Waxing Gibbous, 71% of the Moon is Illuminated
Nov 22
Waxing Gibbous
Nov 28
Full
Dec 6
Last Quarter
Dec 13
New
Dec 19
First Quarter

Hourly Weather History & Observations

Time (CST) Temp. Windchill Dew Point Humidity Pressure Visibility Wind Dir Wind Speed Gust Speed Precip Events Conditions
12:52 AM 50.0 °F - 37.0 °F 61% 29.98 in - ESE 4.6 mph - N/A   Unknown
1:52 AM 55.0 °F - 36.0 °F 49% 29.96 in - South 9.2 mph - N/A   Unknown
2:52 AM 52.0 °F - 36.0 °F 54% 29.94 in - SSE 5.8 mph - N/A   Unknown
3:52 AM 55.0 °F - 37.0 °F 51% 29.91 in - SSE 6.9 mph - N/A   Unknown
4:52 AM 55.9 °F - 37.9 °F 51% 29.90 in - South 9.2 mph - N/A   Unknown
5:52 AM 57.0 °F - 39.0 °F 51% 29.88 in - South 11.5 mph - N/A   Unknown
6:52 AM 57.0 °F - 39.9 °F 53% 29.88 in - South 11.5 mph 20.7 mph N/A   Unknown
7:52 AM 57.0 °F - 41.0 °F 55% 29.88 in - South 11.5 mph - N/A   Unknown
8:52 AM 57.9 °F - 42.1 °F 56% 29.88 in - South 12.7 mph - N/A   Unknown
9:52 AM 61.0 °F - 44.1 °F 54% 29.88 in - SSW 12.7 mph 21.9 mph N/A   Unknown
10:52 AM 64.0 °F - 46.0 °F 52% 29.87 in - SSW 12.7 mph 24.2 mph N/A   Unknown
11:52 AM 64.9 °F - 46.9 °F 52% 29.85 in - SSW 12.7 mph 20.7 mph N/A   Unknown
12:52 PM 68.0 °F - 48.9 °F 50% 29.83 in - SSW 12.7 mph 23.0 mph N/A   Unknown
1:52 PM 66.0 °F - 48.9 °F 54% 29.82 in - SSW 11.5 mph - N/A   Unknown
2:52 PM 68.0 °F - 50.0 °F 52% 29.85 in - WSW 9.2 mph 18.4 mph N/A   Unknown
3:52 PM 66.9 °F - 50.0 °F 54% 29.87 in - SW 6.9 mph - N/A   Unknown
4:52 PM 66.0 °F - 50.0 °F 56% 29.92 in - WNW 8.1 mph - N/A   Unknown
5:52 PM 60.1 °F - 39.0 °F 46% 30.00 in - NNW 12.7 mph 25.3 mph N/A   Unknown
6:52 PM 55.0 °F - 36.0 °F 49% 30.07 in - NW 10.4 mph 23.0 mph N/A   Unknown
7:52 PM 52.0 °F - 36.0 °F 54% 30.12 in - NW 10.4 mph 19.6 mph N/A   Unknown
8:52 PM 50.0 °F - 36.0 °F 59% 30.15 in - NNW 9.2 mph 18.4 mph N/A   Unknown
9:52 PM 48.0 °F - 34.0 °F 58% 30.19 in - NNW 8.1 mph 17.3 mph N/A   Unknown
10:52 PM 45.0 °F 42.6 °F 35.1 °F 68% 30.21 in - NW 4.6 mph - N/A   Unknown
11:52 PM 42.1 °F 40.2 °F 34.0 °F 73% 30.22 in - NW 3.5 mph - N/A   Unknown